Theta_e
296 295 295 294 294 294 293 293 292 291 291 291 291 291 291 290 290 290 289 289 289 288 288 288 288 288 288 287 287 288 287 287 288 287 287 287 287 287 287 287 287 287
295 295 295 294 294 294 293 292 292 291 291 291 291 291 291 290 290 289 289 288 288 288 288 288 288 288 288 288 288 288 288 288 288 288 288 288 288 288 287 287 287 287
295 295 295 295 294 294 293 293 292 292 291 291 291 291 290 290 289 289 288 288 288 288 288 288 288 288 288 288 288 288 288 288 288 288 288 288 288 288 287 287 287 287
295 295 295 294 294 294 293 293 292 292 291 291 291 290 289 289 289 289 288 288 288 288 288 288 288 288 288 288 288 288 288 287 287 287 287 287 287 287 287 287 287 287
295 295 294 294 293 293 292 292 292 292 291 290 290 289 289 289 288 288 288 288 288 288 288 288 288 288 288 288 288 287 287 287 287 287 286 286 286 286 286 286 286 286
294 294 293 293 292 292 292 291 291 290 290 289 289 289 288 288 288 288 288 288 288 288 288 288 288 288 288 287 287 287 287 287 286 286 286 286 286 286 286 286 286 286
293 293 292 292 291 291 291 290 290 289 289 289 288 288 288 288 288 288 288 288 288 288 288 288 288 288 288 288 287 287 287 286 286 286 286 286 286 286 286 285 285 285
292 292 291 291 291 290 290 289 289 288 288 288 288 288 288 288 288 288 288 288 288 288 288 288 288 288 288 288 288 287 287 286 286 286 286 285 285 285 285 285 285 285
292 291 291 290 290 289 289 288 288 288 288 288 288 288 288 288 288 288 288 288 288 288 288 288 288 288 288 288 288 287 287 287 286 286 285 285 285 285 284 284 284 284
291 291 290 290 289 289 288 288 288 288 288 288 288 288 288 288 288 288 288 288 288 288 287 287 287 287 287 287 287 287 287 287 286 286 285 285 285 284 284 284 284 284
290 290 290 289 289 289 288 288 288 288 288 288 288 288 288 288 288 288 288 288 288 288 287 287 287 287 287 287 287 287 287 287 286 286 285 285 284 284 284 284 284 284
289 289 289 289 289 288 288 288 288 288 288 288 288 288 288 288 288 288 288 288 288 288 288 288 287 287 287 286 287 287 287 287 286 285 285 284 284 284 284 283 283 283
288 289 289 288 288 288 288 288 288 288 288 288 288 288 288 288 288 288 288 288 288 288 288 288 287 287 287 286 286 286 286 286 286 285 284 284 284 283 283 283 283 283
288 288 288 288 288 288 288 288 288 288 289 288 288 288 288 288 288 288 288 288 288 288 288 287 287 287 287 286 286 286 286 285 285 284 284 283 283 283 283 283 283 283
288 288 288 288 287 287 288 288 288 288 289 289 288 289 288 288 288 288 288 288 288 288 287 287 287 287 287 286 286 286 285 285 284 284 283 283 283 283 283 283 283 283
288 288 288 287 287 287 287 288 288 288 289 288 288 288 288 288 288 288 288 288 287 287 287 287 287 286 286 286 285 285 285 284 284 283 283 283 283 283 283 282 282 283
288 288 287 287 287 287 287 287 288 288 288 288 288 288 288 288 288 288 288 287 287 287 287 287 287 286 286 285 285 285 284 283 283 282 282 282 282 282 282 282 282 282
288 288 287 287 287 287 287 287 288 288 288 288 288 288 288 288 288 287 287 287 287 287 287 287 286 286 285 285 285 284 283 282 282 282 282 282 282 282 282 282 282 282
288 288 287 287 287 287 287 287 288 288 288 288 288 288 288 287 287 287 287 287 287 287 287 286 286 286 285 285 284 283 282 281 282 282 282 282 282 282 282 282 282 282
289 288 287 287 287 287 287 287 288 288 288 288 288 288 287 287 287 287 287 287 286 286 286 286 286 285 285 284 284 282 281 281 281 281 281 282 282 281 281 281 281 281
289 289 288 287 287 287 287 287 287 288 288 288 288 287 287 287 287 287 286 286 286 286 286 286 285 285 284 284 283 282 281 281 281 281 281 281 281 281 281 281 281 281
289 289 288 288 287 287 287 287 288 288 288 288 288 287 287 287 287 286 286 286 286 286 286 286 285 285 284 283 282 281 281 281 281 281 281 281 281 281 281 281 281 281
289 289 289 288 288 288 288 288 288 288 288 288 287 287 287 286 286 286 286 286 286 286 286 286 285 284 283 282 281 281 281 281 281 281 281 281 281 281 281 281 281 280
289 289 289 289 289 289 288 288 288 288 287 287 287 287 287 286 286 286 286 286 286 286 286 285 285 284 282 281 281 281 281 281 281 281 281 281 281 281 281 280 280 279
289 289 289 289 289 288 288 288 288 288 287 287 287 286 286 286 286 286 286 286 286 286 285 285 284 283 282 281 281 281 280 281 281 281 281 281 281 280 280 280 279 279
288 288 288 288 288 288 288 288 288 287 287 287 286 286 286 286 286 286 286 286 286 285 285 284 284 282 281 281 281 280 280 280 280 280 280 280 280 280 279 279 279 279
Wind_Speed
6 5 4 3 2 1 1 1 2 2 2 3 4 5 6 7 8 8 9 9 10 10 11 11 12 12 13 13 14 14 14 15 16 16 16 17 17 17 18 18 19 19
5 4 3 2 1 1 1 1 1 2 3 4 5 6 7 8 8 9 10 10 11 12 12 13 14 14 15 16 17 18 18 19 20 20 21 21 22 22 22 22 23 23
5 5 4 4 4 4 4 3 3 4 5 6 6 7 8 8 8 9 10 10 11 12 13 14 15 15 16 17 18 19 19 20 21 21 22 23 23 24 25 25 25 26
7 6 6 6 6 6 5 5 5 6 6 7 7 8 8 8 9 9 10 11 12 13 14 14 15 16 17 17 18 18 19 20 20 21 22 22 23 23 24 24 25 25
9 8 8 8 8 7 7 7 8 8 9 9 9 9 9 9 10 10 11 12 12 13 14 14 15 16 16 17 18 19 19 20 21 21 22 22 22 23 23 23 24 24
11 10 10 9 9 9 9 10 10 10 10 10 9 10 10 10 10 10 11 11 12 13 13 14 15 15 16 17 18 19 19 20 21 21 22 22 23 23 23 24 24 24
12 11 11 11 11 11 11 12 11 11 10 10 10 9 9 9 9 9 10 11 12 12 13 14 15 16 17 17 18 19 19 20 21 21 22 22 23 23 24 24 25 25
13 12 12 12 12 13 13 12 11 11 10 10 8 7 7 7 7 8 10 11 12 13 14 15 16 17 18 19 19 20 20 21 21 21 22 22 23 23 24 25 26 26
15 14 14 14 14 14 13 12 12 11 10 8 6 5 5 6 7 9 11 12 14 15 17 18 19 19 20 20 21 21 21 22 22 22 23 23 24 24 25 25 26 27
17 16 15 15 15 14 14 13 12 11 9 7 6 5 6 7 9 11 12 14 15 17 19 20 21 22 23 23 23 23 24 24 24 25 25 25 26 26 26 27 27 28
18 17 16 16 16 16 15 14 13 11 9 8 7 7 8 9 10 12 14 16 17 19 21 23 24 25 26 26 26 26 26 26 26 27 27 27 28 28 28 29 29 30
19 18 17 17 17 17 16 15 13 11 10 8 8 8 9 11 12 14 16 18 19 21 23 25 27 28 28 28 28 28 28 28 28 28 28 28 29 29 29 30 30 31
19 18 18 18 19 18 17 15 14 12 10 9 9 10 11 12 14 16 17 19 21 22 24 26 28 29 30 30 29 28 28 28 28 28 28 29 29 29 30 30 31 31
20 19 19 20 20 19 18 16 14 13 11 11 11 11 12 13 15 17 18 20 21 23 24 26 28 29 30 31 30 30 29 29 29 29 29 29 29 29 30 31 31 32
22 21 22 22 21 20 19 17 15 14 13 13 13 13 14 15 16 17 19 20 21 23 25 26 28 29 31 32 31 30 30 29 29 29 29 29 29 30 30 31 31 32
24 24 24 23 22 22 20 18 16 16 15 15 15 15 16 16 18 19 20 21 22 23 25 27 28 29 31 32 31 30 30 30 30 30 29 29 29 30 30 30 31 32
25 26 25 25 24 23 22 19 18 18 18 18 18 18 18 19 19 20 21 22 23 24 27 27 28 30 31 32 31 29 29 30 30 30 29 29 29 29 30 30 31 32
27 27 27 26 25 24 23 20 20 20 21 21 20 20 21 21 21 22 22 23 24 26 27 28 29 30 31 31 30 29 29 30 30 30 29 29 29 29 30 30 31 32
27 27 27 27 26 25 24 22 22 23 23 23 22 23 23 23 23 24 24 24 25 27 28 29 29 30 31 31 30 29 29 30 30 30 30 30 29 29 30 31 32 33
27 28 28 28 27 26 25 25 25 25 25 25 25 26 26 25 25 25 25 25 26 28 30 30 29 31 31 31 30 30 30 30 30 30 30 30 30 30 31 31 32 33
27 28 28 28 28 28 27 27 27 28 28 28 29 29 28 27 27 26 26 27 28 29 31 30 30 31 31 30 30 30 30 30 30 30 30 30 31 31 32 32 33 34
27 27 27 28 28 29 29 29 30 30 31 31 31 31 30 28 28 27 27 28 29 30 31 31 31 31 31 30 30 30 31 31 31 31 31 32 32 33 33 34 35 35
24 25 26 27 28 29 30 31 32 33 33 33 32 32 30 29 28 28 28 29 30 31 32 32 32 31 30 30 30 30 31 31 31 32 32 33 34 34 35 36 36 36
22 23 25 26 27 29 30 31 32 33 33 33 32 31 30 29 28 28 29 30 31 31 32 33 32 31 30 30 30 30 30 31 32 32 33 34 34 35 36 36 36 36
21 22 23 24 24 25 26 28 29 29 30 30 30 30 29 29 29 29 30 31 31 31 32 33 32 31 30 30 29 29 30 30 31 32 33 34 35 35 36 36 36 36
19 19 19 19 20 22 23 24 25 26 27 28 28 29 29 29 29 30 31 31 31 32 32 32 31 30 30 30 29 29 29 29 30 32 32 33 34 34 36 36 36 36
Wind_Direction
118 119 118 112 102 86 69 42 46 42 26 20 14 7 3 0 359 360 359 356 355 353 351 351 350 349 348 347 344 342 340 337 336 334 333 331 330 329 328 327 327 326
138 141 146 158 185 221 246 279 318 334 341 345 345 344 344 345 346 346 345 344 343 340 338 336 334 332 331 330 328 326 325 324 323 322 322 322 321 320 320 320 320 320
166 172 184 200 215 227 240 252 275 298 310 315 318 321 322 324 327 329 329 327 324 320 318 316 315 315 314 314 313 312 312 311 311 310 310 310 310 310 310 311 311 312
189 196 205 214 220 227 236 247 261 275 283 286 289 293 297 301 303 303 302 301 301 301 301 301 303 303 304 304 304 303 303 302 302 302 302 302 302 303 304 304 305 306
202 209 215 219 223 230 239 246 253 257 262 265 269 275 279 281 283 285 288 291 293 295 297 298 299 299 299 299 299 298 299 298 298 299 299 299 299 300 301 301 302 303
211 215 220 223 227 234 240 244 247 249 252 255 258 262 267 272 278 285 291 296 299 300 301 301 300 300 298 297 296 296 296 296 297 297 298 299 299 300 301 301 302 304
218 222 224 228 233 237 240 242 243 245 247 250 254 259 267 275 286 296 302 306 309 308 308 307 306 304 302 300 299 298 297 297 297 297 298 298 299 300 301 302 304 305
223 227 229 232 235 237 239 240 241 243 244 247 252 258 271 288 301 310 316 317 318 317 316 314 312 310 307 305 304 302 301 300 299 300 300 301 302 303 304 305 306 307
227 231 233 235 237 236 237 238 238 240 240 242 248 260 281 303 316 324 327 328 328 326 324 321 318 315 312 309 308 306 305 304 304 305 305 306 307 308 308 308 308 309
229 231 233 235 236 235 236 236 235 235 234 238 250 269 293 311 322 328 330 332 333 332 331 330 326 321 318 314 313 311 310 309 309 309 310 312 312 312 312 311 311 312
229 231 232 234 234 234 235 233 230 229 232 243 259 278 299 313 322 326 328 329 331 333 334 334 331 328 323 320 317 315 313 312 312 313 313 314 314 314 314 314 315 315
230 231 233 234 234 234 232 227 226 229 237 252 269 286 302 311 317 321 324 326 327 329 331 332 333 331 327 323 319 315 314 312 312 313 314 314 315 315 315 316 316 316
234 235 235 236 235 231 227 224 226 234 244 258 274 289 300 308 313 317 320 321 322 323 325 328 330 330 328 325 320 316 314 312 312 313 313 314 315 315 315 315 316 317
236 237 237 237 234 228 225 226 232 240 251 262 274 285 295 303 308 311 313 314 316 317 319 322 326 327 327 324 320 316 313 312 313 313 314 315 315 315 315 316 316 317
238 239 238 236 232 229 229 232 238 246 255 264 272 281 290 296 301 304 306 307 310 312 315 319 323 325 325 323 319 315 313 312 313 313 314 315 314 314 315 316 317 316
239 239 238 236 233 233 235 239 244 251 258 264 271 278 285 291 294 297 299 303 306 310 313 317 321 322 323 321 317 313 311 311 311 312 313 313 312 314 315 315 316 315
240 240 239 238 237 238 241 245 250 255 260 265 270 276 282 287 290 292 296 300 304 308 312 316 319 320 320 318 314 311 310 310 310 310 311 311 311 313 314 315 315 314
241 241 241 241 241 243 246 250 255 258 262 266 271 276 281 284 286 289 294 298 303 308 311 314 317 318 318 316 311 309 309 308 308 309 309 309 311 312 314 314 314 314
242 243 243 244 245 249 252 255 259 262 265 269 273 277 279 281 284 287 292 297 302 306 309 312 315 315 315 313 309 308 308 307 307 307 307 308 310 312 314 314 313 313
244 244 245 247 250 253 257 260 264 267 270 273 274 276 277 279 282 285 291 297 302 305 308 311 313 313 312 309 307 306 307 306 306 306 306 308 311 312 313 313 312 313
245 246 247 250 253 257 261 265 268 271 272 274 274 274 275 277 280 284 290 296 301 304 307 309 311 311 309 307 305 307 307 306 306 306 307 309 310 312 312 312 312 313
246 248 251 253 256 260 264 267 270 271 272 273 272 272 273 275 279 283 289 295 300 303 305 308 309 309 307 305 305 307 307 306 307 307 308 309 310 311 312 311 312 313
247 251 255 259 261 264 267 269 270 270 270 271 270 270 272 274 277 282 288 294 299 302 304 306 307 306 304 304 305 307 306 306 307 307 308 309 310 311 310 311 312 313
251 255 259 261 263 265 267 268 269 268 268 268 268 268 269 271 275 281 288 294 298 301 303 305 305 303 302 303 306 306 306 305 306 307 308 309 309 309 309 310 311 312
252 254 257 259 261 263 264 264 264 264 265 265 265 266 267 270 275 282 288 293 297 300 302 303 302 301 301 303 304 304 303 304 305 306 307 308 308 308 308 309 309 310
249 252 257 262 265 265 263 262 262 262 262 263 263 265 267 270 277 283 288 294 297 299 301 301 299 299 300 302 302 301 302 303 304 306 307 307 307 307 307 308 309 311